Date String (YYYY-MM-DD hh:mm:ss) UTC,Instrument flags,absolute air pressure of the measurement (hPa),sample flow rate (lpm),inlet stack bypass flow (lpm),air temperature of the measurement (°C),ambient temperature measured by the external sensor (°C),aerosol sample conditioner tube jacket temperature (°C),OPC LED temperature (°C),internal box temperature (°C),relative humidity of the measurement (%),span deviation,mass concentration of particles derived from Lorenz-Mie calculation of OPC scattering (μg/m³),mass concentration of particles derived from Lorenz-Mie calculation of OPC scattering (μg/m³),mass concentration of particles derived from Lorenz-Mie calculation of OPC scattering (μg/m³)
DateTimeUTC,F1_M11,P_M11,Q1_M11,Q2_M11,T1_M11,T2_M11,T3_M11,T4_M11,T5_M11,U1_M11,ZSPAN_M11,X2_M11,X0_M11,X1_M11
2023-09-13 02:00:00,SystemResetWarning,0831.5,4.99,000.00,028.1,026.8,000.0,036.4,029.7,26.2,-000.6,0005.51,0011.35,0005.05
2023-09-13 02:01:00,SystemResetWarning,0831.4,4.99,000.00,028.1,027.0,000.0,036.4,029.8,25.7,-000.9,0005.53,0011.46,0005.07
2023-09-13 02:02:00,SystemResetWarning,0831.5,5.00,000.00,028.2,027.1,000.0,036.4,029.8,25.4,-001.2,0005.55,0011.89,0005.08
2023-09-13 02:03:00,SystemResetWarning,0831.4,5.00,000.00,028.2,027.2,000.0,036.5,029.9,25.4,-001.2,0005.54,0011.88,0005.08
2023-09-13 02:04:00,SystemResetWarning,0831.5,5.00,000.00,028.3,027.3,000.0,036.5,029.9,25.4,-001.3,0005.54,0011.77,0005.09
2023-09-13 02:05:00,SystemResetWarning,0831.5,5.01,000.00,028.3,027.4,000.0,036.5,030.0,25.3,-001.3,0005.55,0011.73,0005.11
2023-09-13 02:06:00,SystemResetWarning,0831.5,5.01,000.00,028.3,027.4,000.0,036.6,030.1,25.1,-001.3,0005.54,0012.09,0005.11
2023-09-13 02:07:00,SystemResetWarning,0831.5,5.00,000.00,028.4,027.5,000.0,036.6,030.1,25.6,-000.8,0005.55,0012.09,0005.13
2023-09-13 02:08:00,SystemResetWarning,0831.5,4.99,000.00,028.4,027.2,000.0,036.6,030.1,26.0,-000.7,0005.57,0011.95,0005.12
2023-09-13 02:09:00,SystemResetWarning,0831.5,4.99,000.00,028.4,025.5,000.0,036.6,029.7,25.5,-000.3,0005.62,0011.76,0005.13
2023-09-13 02:10:00,SystemResetWarning,0831.5,5.01,000.00,028.3,024.7,000.0,036.5,029.6,25.5,-000.2,0005.66,0011.21,0005.15
2023-09-13 02:11:00,SystemResetWarning,0831.5,5.01,000.00,028.2,024.7,000.0,036.5,029.5,25.5,0000.3,0005.64,0010.32,0005.15
2023-09-13 02:12:00,SystemResetWarning,0831.5,4.99,000.00,028.1,025.0,000.0,036.5,029.5,25.7,0000.6,0005.63,0010.15,0005.14
2023-09-13 02:13:00,SystemResetWarning,0831.5,5.00,000.00,028.1,025.4,000.0,036.5,029.5,25.7,0000.7,0005.63,0009.95,0005.14
2023-09-13 02:14:00,SystemResetWarning,0831.5,5.01,000.00,028.1,025.7,000.0,036.5,029.6,25.4,0000.5,0005.64,0010.23,0005.13
2023-09-13 02:15:00,SystemResetWarning,0831.6,5.01,000.00,028.1,026.1,000.0,036.5,029.6,25.3,0000.8,0005.62,0010.59,0005.11
2023-09-13 02:16:00,SystemResetWarning,0831.6,5.00,000.00,028.1,026.3,000.0,036.5,029.7,25.5,0001.0,0005.60,0010.95,0005.09
2023-09-13 02:17:00,SystemResetWarning,0831.6,5.00,000.00,028.2,026.6,000.0,036.5,029.7,25.3,0001.5,0005.58,0011.41,0005.07
2023-09-13 02:18:00,SystemResetWarning,0831.6,5.00,000.00,028.2,026.8,000.0,036.6,029.8,24.9,0001.5,0005.57,0012.16,0005.05
2023-09-13 02:19:00,SystemResetWarning,0831.6,5.00,000.00,028.2,026.9,000.0,036.6,029.9,25.0,0001.1,0005.56,0012.02,0005.04
2023-09-13 02:20:00,SystemResetWarning,0831.7,5.00,000.00,028.3,027.1,000.0,036.6,029.9,25.6,0001.0,0005.50,0011.73,0005.02
2023-09-13 02:21:00,SystemResetWarning,0831.6,5.00,000.00,028.3,027.2,000.0,036.6,030.0,25.5,0001.4,0005.48,0011.62,0005.01
2023-09-13 02:22:00,SystemResetWarning,0831.7,5.00,000.00,028.3,027.3,000.0,036.7,030.0,24.9,0001.3,0005.52,0011.86,0005.00
2023-09-13 02:23:00,SystemResetWarning,0831.7,5.00,000.00,028.4,027.4,000.0,036.7,030.1,25.9,0001.0,0005.53,0012.02,0005.01
2023-09-13 02:24:00,SystemResetWarning,0831.7,5.00,000.00,028.4,027.5,000.0,036.7,030.1,25.6,0000.8,0005.50,0011.94,0005.00
2023-09-13 02:25:00,SystemResetWarning,0831.7,4.98,000.00,028.4,026.5,000.0,036.7,030.0,25.9,0001.0,0005.47,0011.41,0005.00
2023-09-13 02:26:00,SystemResetWarning,0831.7,5.01,000.00,028.4,025.0,000.0,036.6,029.8,26.3,0001.1,0005.51,0011.54,0005.01
2023-09-13 02:27:00,SystemResetWarning,0831.7,5.00,000.00,028.3,024.6,000.0,036.5,029.6,26.4,0001.3,0005.53,0011.50,0005.01
2023-09-13 02:28:00,SystemResetWarning,0831.7,5.01,000.00,028.2,024.8,000.0,036.6,029.5,26.2,0000.8,0005.55,0011.13,0005.02
2023-09-13 02:29:00,SystemResetWarning,0831.7,5.01,000.00,028.2,025.2,000.0,036.6,029.5,26.4,-000.0,0005.54,0009.90,0005.03
2023-09-13 02:30:00,SystemResetWarning,0831.7,4.99,000.00,028.1,025.5,000.0,036.6,029.5,26.4,0000.0,0005.56,0009.88,0005.05
2023-09-13 02:31:00,SystemResetWarning,0831.7,5.00,000.00,028.1,025.9,000.0,036.6,029.6,26.2,-000.0,0005.56,0009.93,0005.06
2023-09-13 02:32:00,SystemResetWarning,0831.8,4.99,000.00,028.1,026.2,000.0,036.6,029.6,26.3,-000.3,0005.60,0009.97,0005.07
2023-09-13 02:33:00,SystemResetWarning,0831.9,5.00,000.00,028.2,026.4,000.0,036.6,029.7,25.9,-000.2,0005.60,0010.03,0005.07
2023-09-13 02:34:00,SystemResetWarning,0832.2,5.01,000.00,028.2,026.6,000.0,036.6,029.8,25.5,-000.0,0005.58,0009.92,0005.07
2023-09-13 02:35:00,SystemResetWarning,0832.3,5.01,000.00,028.2,026.8,000.0,036.6,029.8,25.2,0000.3,0005.62,0009.99,0005.08
2023-09-13 02:36:00,SystemResetWarning,0832.2,5.00,000.00,028.2,026.9,000.0,036.6,029.9,24.9,0000.9,0005.63,0010.09,0005.09
2023-09-13 02:37:00,SystemResetWarning,0831.9,5.00,000.00,028.3,027.1,000.0,036.6,029.9,25.0,0001.5,0005.59,0009.85,0005.09
2023-09-13 02:38:00,SystemResetWarning,0831.8,5.00,000.00,028.3,027.2,000.0,036.7,029.9,25.2,0001.8,0005.59,0010.51,0005.10
2023-09-13 02:39:00,SystemResetWarning,0831.8,5.00,000.00,028.3,027.3,000.0,036.7,030.0,25.0,0002.2,0005.57,0010.69,0005.10
2023-09-13 02:40:00,SystemResetWarning,0831.8,4.99,000.00,028.4,027.3,000.0,036.7,030.0,25.0,0002.4,0005.58,0010.87,0005.10
2023-09-13 02:41:00,SystemResetWarning,0831.8,4.99,000.00,028.4,027.4,000.0,036.7,030.1,24.8,0002.3,0005.55,0011.08,0005.09
2023-09-13 02:42:00,SystemResetWarning,0831.8,5.00,000.00,028.5,027.2,000.0,036.7,030.1,24.6,0002.1,0005.55,0011.05,0005.09
2023-09-13 02:43:00,SystemResetWarning,0831.8,5.00,000.00,028.4,025.7,000.0,036.6,029.9,24.9,0002.4,0005.53,0011.79,0005.08
2023-09-13 02:44:00,SystemResetWarning,0831.9,5.00,000.00,028.4,024.6,000.0,036.6,029.7,24.8,0002.6,0005.51,0011.93,0005.09
2023-09-13 02:45:00,SystemResetWarning,0831.8,5.00,000.00,028.3,024.6,000.0,036.6,029.6,24.9,0002.6,0005.52,0011.85,0005.09
2023-09-13 02:46:00,SystemResetWarning,0831.8,5.01,000.00,028.2,024.9,000.0,036.6,029.5,24.5,0002.6,0005.52,0011.96,0005.09
2023-09-13 02:47:00,SystemResetWarning,0831.8,5.00,000.00,028.1,025.2,000.0,036.6,029.5,24.9,0002.2,0005.57,0012.37,0005.09
2023-09-13 02:48:00,SystemResetWarning,0831.9,4.99,000.00,028.1,025.6,000.0,036.6,029.5,24.5,0001.9,0005.60,0012.55,0005.10
2023-09-13 02:49:00,SystemResetWarning,0831.9,5.00,000.00,028.1,025.9,000.0,036.6,029.6,24.6,0001.3,0005.60,0011.96,0005.09
2023-09-13 02:50:00,SystemResetWarning,0831.9,5.00,000.00,028.1,026.2,000.0,036.6,029.6,24.4,0000.4,0005.61,0011.72,0005.10
2023-09-13 02:51:00,SystemResetWarning,0832.0,5.00,000.00,028.2,026.4,000.0,036.6,029.7,24.2,0000.2,0005.65,0011.67,0005.10
2023-09-13 02:52:00,SystemResetWarning,0832.0,5.00,000.00,028.2,026.6,000.0,036.6,029.8,23.9,0000.6,0005.70,0011.88,0005.11
2023-09-13 02:53:00,SystemResetWarning,0832.0,5.01,000.00,028.2,026.8,000.0,036.6,029.8,23.8,0001.1,0005.72,0011.95,0005.11
2023-09-13 02:54:00,SystemResetWarning,0832.0,5.00,000.00,028.2,026.9,000.0,036.6,029.8,23.7,0000.9,0005.72,0011.21,0005.12
2023-09-13 02:55:00,SystemResetWarning,0832.0,5.00,000.00,028.3,027.0,000.0,036.7,029.9,23.9,0000.7,0005.72,0011.36,0005.12
2023-09-13 02:56:00,SystemResetWarning,0832.0,5.00,000.00,028.3,027.1,000.0,036.7,029.9,23.7,0000.8,0005.71,0011.37,0005.11
2023-09-13 02:57:00,SystemResetWarning,0832.0,5.00,000.00,028.3,027.2,000.0,036.7,030.0,23.6,0000.6,0005.73,0011.36,0005.11
2023-09-13 02:58:00,SystemResetWarning,0832.0,5.00,000.00,028.4,027.3,000.0,036.7,030.0,23.7,0000.6,0005.68,0010.78,0005.10
2023-09-13 02:59:00,SystemResetWarning,0832.0,5.00,000.00,028.4,027.3,000.0,036.7,030.1,23.8,0000.4,0005.67,0010.71,0005.10
